Location: Barcelona
(41.3830°N, 2.1830°E)
Time: 15:36:41
(UTC+02:00)

ISS - Pass Details

Date: 10 March 2021
Orbit: 418 x 422 km, 51.6° (Epoch: 16 April)

Event Time Altitude Azimuth Distance (km) Brightness Sun altitude
Exits shadow 05:45:33 24° 323° (NW) 910 -2.3 -16.9°
Maximum altitude 05:47:19 54° 32° (NNE) 515 -3.1 -16.5°
Drops below altitude 10° 05:50:36 10° 110° (ESE) 1,492 0.0 -15.9°
Sets 05:52:43 0° 116° (ESE) 2,354 1.0 -15.5°
